Location: Forest
(37.3641°N, 79.2902°W)
Time: 07:05:01
(UTC+00:00)

Hubble Space Telescope - Pass Details

Date: 29 January 2026
Orbit: 478 x 480 km, 28.5° (Epoch: 10 February)

Event Time Altitude Azimuth Distance (km) Brightness Sun altitude
Rises 23:53:16 0° 252° (WSW) 2,513 6.0 -15.1°
Reaches altitude 10° 23:55:56 10° 233° (SW) 1,635 4.3 -15.6°
Maximum altitude 23:58:36 19° 188° (S) 1,202 2.7 -16.1°
Enters shadow 00:00:59 11° 146° (SE) 1,556 2.9 -16.6°
